Location: Vihti�l�
(61.3833°N, 23.0667°E)
Time: 04:45:06
(UTC+00:00)

ADEOS II - Pass Details

Date: 29 November 2020
Orbit: 799 x 801 km, 98.5° (Epoch: 19 January)

Event Time Altitude Azimuth Distance (km) Brightness Sun altitude
Rises 04:54:29 0° 28° (NNE) 3,328 5.4 -14.4°
Reaches altitude 10° 04:58:35 10° 357° (N) 2,395 4.3 -13.9°
Maximum altitude 05:00:12 11° 339° (NNW) 2,295 4.1 -13.7°
Enters shadow 05:00:55 11° 331° (NNW) 2,314 4.0 -13.6°
